Location: Dziadowski
(50.3833°N, 20.0333°E)
Time: 01:16:01
(UTC+00:00)

Daily predictions for brighter satellites

Satellite Brightness Start Highest point End
(mag) Time Altitude Azimuth Time Altitude Azimuth Time Altitude Azimuth
CZ-4C R/B 4.3 02:30:32 22° NNE 02:30:32 22° NNE 02:34:28 10° NE
Cosmos 2082 Rocket 4.0 02:30:21 25° NE 02:30:23 25° NE 02:35:02 10° E
Cosmos 1943 Rocket 4.2 02:43:58 16° SE 02:46:48 24° ESE 02:51:04 10° NE
Cosmos 2181 Rocket 4.4 03:03:15 10° N 03:09:37 64° ENE 03:15:59 10° SSE
Gblst 52 Del rocket 4.4 03:17:24 62° ESE 03:17:24 62° ESE 03:21:56 10° ESE
ATLAS 2AS CENTAUR R/B 3.0 03:16:43 50° N 03:18:11 61° NE 03:24:53 10° ESE
GEOS 3 Rocket 4.5 03:17:23 10° ESE 03:22:20 44° NE 03:23:12 41° N
Lacrosse 4 Rocket 4.4 03:24:14 10° SE 03:26:09 13° ESE 03:28:04 10° ENE
BREEZE M DEB (TANK) 3.8 03:34:44 32° SE 03:34:44 32° SE 03:38:08 10° ESE
Cosmos 1805 Rocket 4.3 03:35:28 10° S 03:39:45 51° E 03:44:02 10° NNE
IRS-1D 4.1 03:38:25 10° NNE 03:43:42 59° ESE 03:48:56 10° S
Cosmos 921 Rocket 3.3 03:44:52 61° ESE 03:45:01 61° ESE 03:49:12 10° NNE
Lacrosse 5 rocket 2.9 03:47:59 25° NNE 03:47:59 25° NNE 03:50:16 10° ENE
Cosmos 1500 Rocket 4.0 03:43:02 10° S 03:47:19 60° E 03:51:40 10° NNE
Okean 3 4.3 03:50:32 40° SSE 03:50:32 40° SSE 03:53:09 10° SSE
Cosmos 1408 Rocket 3.6 03:50:54 59° SSE 03:51:37 75° E 03:55:56 10° NNE
Nadezhda 3 Rocket 4.2 03:45:36 10° N 03:51:52 70° ENE 03:58:09 10° SSE
SKYMED 2 4.2 03:49:09 10° S 03:52:09 44° S 03:52:09 44° S
BREEZE-M DEB (TANK) 4.5 03:54:08 39° WSW 03:55:22 41° SW 03:59:45 10° SSE
Helios 1A Rocket 3.9 03:54:23 10° SE 03:57:28 35° ENE 03:58:19 30° NE
Cosmos 1758 4.1 03:55:42 10° SSE 03:59:15 46° E 04:02:49 10° NNE
ATLAS CENTAUR R/B 3.1 04:04:56 16° SSE 04:04:56 16° SSE 04:05:38 10° SSE
Cosmos 1295 Rocket 4.4 04:00:02 10° S 04:06:22 84° W 04:12:41 10° N
Cosmos 44 3.4 04:08:32 51° WNW 04:09:44 68° SW 04:15:05 10° SSE
BREEZE-M DEB (TANK) 3.1 04:14:52 60° SSE 04:14:52 60° SSE 04:18:39 10° ESE
Cosmos 2082 Rocket 2.1 04:12:12 30° NNW 04:15:08 81° WSW 04:20:49 10° SSE
Cosmos 2084 Rocket 3.7 04:14:27 43° NNW 04:15:36 62° NE 04:19:46 10° ESE
IGS 5A 4.5 04:13:15 10° NNE 04:17:05 44° E 04:20:53 10° S
Meteor 2-10 Rocket 3.4 04:13:16 10° SSW 04:18:25 78° WNW 04:23:48 10° N
CZ-4C R/B 3.9 04:15:28 19° NNW 04:19:11 33° NNE 04:26:03 10° E
Cosmos 2154 Rocket 3.9 04:13:19 10° S 04:19:38 85° W 04:25:57 10° N
COSMOS 2406 3.6 04:15:50 17° NNW 04:20:16 65° ENE 04:25:59 10° SE
Cosmos 2278 Rocket 2.1 04:14:44 10° SSW 04:20:24 84° WNW 04:26:06 10° NNE
COSMO-SKYMED 1 2.4 04:23:06 10° S 04:27:08 56° W 04:28:08 43° NW
Cosmos 1862 Rocket 3.7 04:23:30 10° N 04:27:52 70° ENE 04:32:08 10° SSE
Cosmos 1943 Rocket 2.0 04:25:36 16° SW 04:30:02 66° WNW 04:35:33 10° NNE
Cosmos 2084 4.3 04:30:17 30° NNW 04:30:17 30° NNW 04:33:50 10° NNE
USA 307 2.8 04:32:57 46° WSW 04:33:45 55° SSW 04:37:35 10° SE
DMSP B5D1-3 4.4 04:29:14 10° SSE 04:34:17 84° WSW 04:39:23 10° NNW
Cosmos 1763 Rocket 3.3 04:30:51 17° NNW 04:34:47 89° WSW 04:39:52 10° SSE
USA 32 4.0 04:29:53 10° S 04:35:07 89° W 04:40:24 10° N
Cosmos 1140 Rocket 3.3 04:31:43 10° SSW 04:36:49 78° WNW 04:41:59 10° NNE
Cosmos 1269 Rocket 3.9 04:31:37 10° SSW 04:36:54 76° WNW 04:42:13 10° NNE
Gbstr 26 Del rocket 4.2 04:33:15 20° WSW 04:38:45 81° SSE 04:45:08 10° ENE
Cosmos 1707 Rocket 3.4 04:39:02 10° N 04:43:23 86° WSW 04:47:43 10° S
Cosmos 1023 Rocket 4.4 04:39:10 10° SW 04:44:12 64° WNW 04:49:19 10° NNE
Cosmos 540 Rocket 3.3 04:40:31 14° NNW 04:45:01 85° WSW 04:50:07 10° SSE
Dummy Sat-02 4.5 04:42:46 10° SSW 04:46:21 61° W 04:49:55 10° N
Cosmos 1339 Rocket 4.4 04:42:46 10° NNW 04:48:47 63° W 04:54:47 10° S
Cosmos 1633 Rocket 3.3 04:46:43 10° S 04:51:01 69° E 04:55:19 10° NNE
Timation 2 Rocket 4.0 04:46:28 10° SW 04:52:57 61° NW 04:59:12 10° NNE
Cosmos 1743 Rocket 3.8 04:50:05 10° SSW 04:54:19 45° WNW 04:58:35 10° N
Okean 1-7 2.8 04:52:06 10° NNW 04:56:15 71° W 05:00:24 10° S
CZ-4 R/B 4.2 04:52:31 10° N 04:57:01 42° WNW 05:01:35 10° SW
ARIANE 5 R/B 4.0 04:54:58 10° NNE 04:59:48 40° E 05:04:31 10° SSE
GEOS 3 Rocket 3.9 04:55:09 10° SSE 05:00:15 54° SW 05:04:15 17° NW
Cosmos 2184 Rocket 4.3 04:55:44 10° SW 05:01:32 41° WNW 05:07:20 10° N
Cosmos 1953 3.0 04:58:07 10° S 05:01:41 52° E 05:05:16 10° NNE
SOZ 4.4 05:01:55 29° WNW 05:03:06 77° NNE 05:07:51 10° E
Cosmos 1666 Rocket 3.4 04:58:46 10° SSW 05:03:07 76° W 05:07:32 10° N
Lacrosse 4 Rocket 1.1 04:59:29 10° SW 05:03:25 76° NW 05:07:20 10° NNE
SL-8 Rocket 4.2 04:59:31 10° S 05:05:50 81° E 05:12:07 10° NNE
Cosmos 371 Rocket 4.5 05:03:20 10° S 05:07:56 46° ESE 05:12:32 10° NE
Cosmos 1484 Rocket 2.5 05:04:39 10° N 05:08:00 54° WNW 05:11:20 10° SSW
Cosmos 220 Rocket 4.0 05:04:19 10° NNW 05:08:33 77° ENE 05:12:42 10° SSE
ATLAS 2AS CENTAUR R/B 3.2 05:04:09 17° WNW 05:08:52 40° WSW 05:15:04 10° S
Cosmos 2228 Rocket 3.1 05:07:51 10° NNW 05:12:11 58° W 05:16:27 10° S
CBERS-1 3.9 05:07:49 10° NNE 05:12:56 81° WNW 05:18:01 10° SSW
SJ 16-02 2.1 05:08:50 10° S 05:12:58 55° ESE 05:17:10 10° NNE
Landsat 7 3.9 05:10:13 10° NNE 05:14:54 78° ESE 05:19:33 10° S
Tiangong 1.1 05:16:05 10° S 05:16:45 10° SSE 05:17:24 10° SSE
Meteor 1-22 Rocket 4.3 05:10:48 10° SSW 05:16:51 81° WNW 05:22:48 10° N
SL-08 R/B 4.3 05:15:29 10° SE 05:20:11 49° ENE 05:24:56 10° N
Cosmos 407 Rocket 3.4 05:17:20 10° SW 05:22:27 65° WNW 05:27:39 10° NNE
SMAP 3.0 05:17:59 10° NNE 05:22:40 83° WNW 05:27:20 10° SSW
Cosmos 2369 Rocket 3.3 05:17:17 10° S 05:22:43 49° ESE 05:28:13 10° NE
BREEZE-M DEB (TANK) 3.4 05:22:01 16° W 05:23:28 32° SSW 05:25:53 10° SE
Cosmos 921 Rocket 4.3 05:21:33 14° W 05:23:29 19° NW 05:26:31 10° N
Lacrosse 5 rocket 1.7 05:21:30 15° NW 05:24:28 47° NNE 05:28:06 10° E
Cosmos 962 Rocket 4.5 05:18:59 10° SSW 05:25:02 62° WNW 05:31:11 10° N
FAST Rocket 3.8 05:25:44 10° N 05:28:43 84° W 05:31:19 10° S
CENTAUR R/B 2.6 05:23:35 10° SW 05:29:12 83° SE 05:36:24 10° NE
Helios 1A Rocket 4.0 05:27:39 10° SW 05:30:01 18° W 05:31:43 13° WNW
Cosmos 1821 Rocket 4.3 05:24:47 10° S 05:31:08 75° E 05:37:27 10° NNE
Cosmos 2227 Rocket 4.4 05:29:58 10° N 05:32:05 12° NNE 05:34:10 10° NE
Cosmos 304 Rocket 3.9 05:28:27 10° SSW 05:33:13 81° ESE 05:38:01 10° NNE
SeaSat 1 2.6 05:28:19 10° NNE 05:33:15 81° ESE 05:38:09 10° SSW
MOS 1 Rocket 3.1 05:29:15 10° N 05:33:46 73° WNW 05:38:04 10° SSW
Cosmos 1867 4.3 05:30:36 10° NW 05:35:55 49° NE 05:41:11 10° ESE
Cosmos 2251 Rocket 3.5 05:33:51 10° SSW 05:39:13 85° WNW 05:44:34 10° NNE
Cosmos 468 Rocket 4.2 05:34:33 10° NNW 05:39:30 50° WSW 05:44:27 10° S
Cosmos 2297 4.4 05:34:04 10° SSW 05:39:35 60° ESE 05:45:08 10° NE
Cosmos 1703 Rocket 3.5 05:36:23 10° NNW 05:40:40 67° W 05:44:56 10° S
Thor Agena Rocket 3.5 05:40:10 10° NNE 05:45:15 68° WNW 05:50:22 10° SSW
Cosmos 2344 4.3 05:40:45 10° NW 05:48:14 58° NE 05:57:57 10° ESE
SPOT 1/Viking Rocket 3.9 05:43:09 10° NNE 05:48:18 70° ESE 05:53:24 10° S
Cosmos 2263 Rocket 4.4 05:48:11 10° N 05:49:52 11° NNE 05:51:33 10° NE
CZ-2D R/B 3.0 05:51:06 10° N 05:54:06 44° WNW 05:57:03 10° SW
Meteor 1-24 Rocket 4.4 05:50:21 10° NNW 05:55:56 40° W 06:01:27 10° SSW
Meteor 2-5 Rocket 4.3 05:51:45 10° NNW 05:57:14 42° W 06:02:46 10° SSW
